KB4RFE Weather Reports


time (UTC)temp
F
wind
direction
speed
knots
gust
knots
rain 1hr
in
rain 24hr
in
rain mn
in
humidity
%
barometer
mb
20260503225159 65 221 2.6 6.1 0.00 0.00 0.00 60 1020.3
20260503224657 65 257 2.6 5.2 0.00 0.00 0.00 60 1020.2
20260503224155 65 272 2.6 6.1 0.00 0.00 0.00 60 1020.2
20260503223652 65 217 7.0 7.0 0.00 0.00 0.00 59 1020.1
20260503223149 65 238 3.5 5.2 0.00 0.00 0.00 58 1020.3
20260503222646 66 220 2.6 6.1 0.00 0.00 0.00 58 1020.0
20260503222143 66 217 9.6 9.6 0.00 0.00 0.00 56 1020.0
20260503221642 66 215 1.7 9.6 0.00 0.00 0.00 58 1020.0
20260503221139 66 222 7.0 7.8 0.00 0.00 0.00 57 1020.0
20260503220635 66 265 1.7 5.2 0.00 0.00 0.00 59 1020.0
20260503220132 66 222 4.3 6.1 0.00 0.00 0.00 56 1020.0
20260503215630 66 253 2.6 7.0 0.00 0.00 0.00 57 1020.0
20260503215126 66 224 6.1 7.0 0.00 0.00 0.00 55 1019.9
20260503214625 66 229 6.1 7.0 0.00 0.00 0.00 55 1020.1
20260503214121 66 228 6.1 10.4 0.00 0.00 0.00 54 1020.0
20260503213620 67 238 5.2 6.1 0.00 0.00 0.00 56 1019.9
20260503213116 68 213 3.5 7.0 0.00 0.00 0.00 56 1019.9
20260503212614 67 237 6.1 6.1 0.00 0.00 0.00 55 1020.0
20260503212111 67 197 3.5 5.2 0.00 0.00 0.00 55 1020.0
20260503211608 67 245 4.3 6.1 0.00 0.00 0.00 55 1020.0
20260503211103 67 222 3.5 8.7 0.00 0.00 0.00 53 1020.2
20260503210600 67 220 5.2 9.6 0.00 0.00 0.00 54 1020.3
20260503210056 68 179 4.3 5.2 0.00 0.00 0.00 55 1020.4
20260503205553 67 250 1.7 6.1 0.00 0.00 0.00 54 1020.4
20260503205049 67 206 7.0 7.0 0.00 0.00 0.00 52 1020.5
20260503204546 68 226 9.6 11.3 0.00 0.00 0.00 54 1020.5
20260503204043 68 196 5.2 7.8 0.00 0.00 0.00 55 1020.4
20260503203540 68 245 4.3 6.1 0.00 0.00 0.00 54 1020.4
20260503203037 67 189 4.3 9.6 0.00 0.00 0.00 55 1020.3
20260503202535 67 222 1.7 7.0 0.00 0.00 0.00 55 1020.3
20260503202033 67 233 6.1 8.7 0.00 0.00 0.00 56 1020.6
20260503201531 68 222 8.7 9.6 0.00 0.00 0.00 56 1020.5
20260503201028 67 204 3.5 7.0 0.00 0.00 0.00 58 1020.7
20260503200524 67 180 4.3 10.4 0.00 0.00 0.00 56 1020.6
20260503200021 67 194 7.8 7.8 0.00 0.00 0.00 58 1020.7
20260503195518 68 202 4.3 7.8 0.00 0.00 0.00 51 1020.8
20260503195015 68 184 5.2 10.4 0.00 0.00 0.00 57 1020.8
20260503194512 68 238 3.5 7.0 0.00 0.00 0.00 58 1020.9
20260503194012 68 199 1.7 7.8 0.00 0.00 0.00 54 1021.0
20260503193508 68 207 1.7 5.2 0.00 0.00 0.00 51 1020.9
20260503193004 67 189 7.0 7.8 0.00 0.00 0.00 54 1021.1
20260503192500 67 175 5.2 8.7 0.00 0.00 0.00 53 1021.0
20260503191955 67 190 3.5 7.8 0.00 0.00 0.00 57 1021.4
20260503191453 68 205 5.2 5.2 0.00 0.00 0.00 57 1021.4
20260503190949 67 185 6.1 9.6 0.00 0.00 0.00 55 1021.4
20260503190447 67 212 5.2 9.6 0.00 0.00 0.00 59 1021.5
20260503185944 67 203 8.7 8.7 0.00 0.00 0.00 57 1021.8
20260503185440 67 192 7.8 8.7 0.00 0.00 0.00 56 1021.7
20260503184940 67 204 5.2 8.7 0.00 0.00 0.00 56 1021.7
20260503184436 67 203 2.6 5.2 0.00 0.00 0.00 58 1021.6
20260503183933 66 219 0.9 9.6 0.00 0.00 0.00 59 1021.8
20260503183429 67 201 7.8 11.3 0.00 0.00 0.00 54 1021.9
20260503182926 66 197 5.2 8.7 0.00 0.00 0.00 55 1021.9
20260503182425 67 175 2.6 8.7 0.00 0.00 0.00 54 1021.9
20260503181922 68 189 2.6 10.4 0.00 0.00 0.00 59 1022.0
20260503181419 68 201 4.3 11.3 0.00 0.00 0.00 55 1022.1
20260503180915 68 202 4.3 7.0 0.00 0.00 0.00 55 1022.2
20260503180414 68 233 2.6 6.1 0.00 0.00 0.00 61 1022.0
20260503175910 69 194 6.1 7.0 0.00 0.00 0.00 53 1022.1
20260503175409 69 162 1.7 1.7 0.00 0.00 0.00 53 1022.0
20260503174904 68 231 1.7 2.6 0.00 0.00 0.00 56 1022.1
20260503174403 68 149 0.0 2.6 0.00 0.00 0.00 56 1021.9
20260503173902 68 197 5.2 5.2 0.00 0.00 0.00 53 1021.9
20260503173359 69 210 4.3 7.8 0.00 0.00 0.00 53 1022.2
20260503172856 68 223 2.6 2.6 0.00 0.00 0.00 58 1022.3
20260503172353 68 162 1.7 3.5 0.00 0.00 0.00 60 1022.4
20260503171849 69 196 0.0 3.5 0.00 0.00 0.00 55 1022.1
20260503171346 68 309 0.0 6.1 0.00 0.00 0.00 56 1022.3
20260503170844 68 158 1.7 1.7 0.00 0.00 0.00 53 1022.3
20260503170340 68 201 0.0 6.1 0.00 0.00 0.00 57 1022.4
20260503150732 67 15 0.9 4.3 0.00 0.00 0.00 49 1022.5
20260503150228 66 36 5.2 5.2 0.00 0.00 0.00 53 1022.6
20260503140153 62 12 4.3 5.2 0.00 0.00 0.00 61 1022.3
20260503131122 58 13 0.0 5.2 0.00 0.00 0.00 86 1022.1
20260503130620 57 18 5.2 5.2 0.00 0.00 0.00 88 1022.1
20260503130118 57 25 0.9 5.2 0.00 0.00 0.00 89 1022.0
20260503110510 48 349 0.9 1.7 0.00 0.00 0.00 99 1020.9
20260503090402 49 331 1.7 1.7 0.00 0.00 0.00 99 1019.4
20260503081329 49 350 1.7 3.5 0.00 0.00 0.00 98 1019.0
20260503080826 49 333 0.9 1.7 0.00 0.00 0.00 98 1019.3
20260503080323 49 323 0.9 1.7 0.00 0.00 0.00 98 1019.2
20260503072759 50 12 0.9 1.7 0.00 0.00 0.00 98 1018.7
20260503072256 50 0 0.9 2.6 0.00 0.00 0.00 98 1018.7
20260503071752 50 11 0.0 3.5 0.00 0.00 0.00 98 1018.6
20260503071249 50 337 1.7 2.6 0.00 0.00 0.00 98 1018.8
20260503070745 51 346 0.9 2.6 0.00 0.00 0.00 98 1018.7
20260503070244 51 359 1.7 1.7 0.00 0.00 0.00 98 1018.8
20260503060209 51 17 0.0 1.7 0.00 0.00 0.00 97 1018.3
20260503054655 52 335 1.7 2.6 0.00 0.00 0.00 97 1018.3
20260503054153 52 351 1.7 1.7 0.00 0.00 0.00 97 1018.4
20260503053651 52 3 0.0 2.6 0.00 0.00 0.00 97 1018.4
20260503053149 52 21 0.0 3.5 0.00 0.00 0.00 97 1018.5
20260503052645 52 4 0.9 4.3 0.00 0.00 0.00 97 1018.4
20260503052141 52 319 1.7 3.5 0.00 0.00 0.00 97 1018.3
20260503051637 53 354 2.6 4.3 0.00 0.00 0.00 97 1018.2
20260503051135 53 48 3.5 5.2 0.00 0.00 0.00 97 1018.3
20260503050631 53 344 1.7 2.6 0.00 0.00 0.00 97 1018.4
20260503050128 53 323 2.6 2.6 0.00 0.00 0.00 97 1018.4
20260503045626 53 11 1.7 2.6 0.00 0.00 0.00 97 1018.3
20260503045122 53 8 3.5 6.1 0.00 0.00 0.00 97 1018.1
20260503044619 53 65 1.7 5.2 0.00 0.00 0.00 97 1018.0
20260503044117 53 322 1.7 2.6 0.00 0.00 0.00 97 1017.9
20260503043613 53 3 1.7 5.2 0.00 0.00 0.00 97 1017.9
20260503043110 53 305 0.9 2.6 0.00 0.00 0.00 97 1018.1
20260503042607 53 18 2.6 3.5 0.00 0.00 0.00 97 1018.0
20260503042103 54 334 1.7 2.6 0.00 0.00 0.00 97 1018.0
20260503041559 54 308 0.0 2.6 0.00 0.00 0.00 97 1017.9
20260503041057 54 20 3.5 4.3 0.00 0.00 0.00 97 1017.9
20260503040554 54 60 2.6 6.1 0.00 0.00 0.00 97 1017.8
20260503040051 54 4 1.7 4.3 0.00 1.09 1.09 97 1017.6
20260503035548 54 19 1.7 4.3 0.00 1.09 1.09 97 1017.6
20260503035046 54 357 1.7 5.2 0.00 1.09 1.09 97 1017.5
20260503034543 54 33 3.5 5.2 0.00 1.09 1.09 97 1017.5
20260503034040 54 35 3.5 4.3 0.00 1.09 1.09 97 1017.4
20260503033537 54 349 1.7 3.5 0.00 1.09 1.09 97 1017.4
20260503033035 55 324 0.9 3.5 0.00 1.09 1.09 97 1017.1
20260503032533 55 16 0.9 1.7 0.00 1.09 1.09 97 1017.3
20260503032031 55 51 3.5 3.5 0.00 1.09 1.09 97 1017.1
20260503031528 55 43 2.6 5.2 0.00 1.09 1.09 97 1017.1
20260503031025 55 354 0.0 1.7 0.00 1.09 1.09 97 1016.8
20260503030521 55 336 1.7 1.7 0.00 1.09 1.09 97 1016.8
20260503030019 55 37 0.9 2.6 0.00 1.09 1.09 97 1016.8
20260503025515 55 339 1.7 3.5 0.00 1.09 1.09 97 1016.9
20260503025013 55 327 2.6 4.3 0.00 1.09 1.09 97 1016.8
20260503024509 55 26 2.6 3.5 0.00 1.09 1.09 97 1016.6
20260503024007 55 15 1.7 2.6 0.00 1.09 1.09 97 1016.6
20260503023503 55 26 3.5 4.3 0.00 1.09 1.09 97 1016.7
20260503023000 55 348 0.9 2.6 0.00 1.09 1.09 97 1016.5
20260503022455 55 354 1.7 1.7 0.00 1.09 1.09 97 1016.4
20260503021951 55 344 1.7 3.5 0.00 1.09 1.09 97 1016.2
20260503021448 55 7 1.7 2.6 0.00 1.09 1.09 97 1016.0
20260503020945 55 5 1.7 2.6 0.00 1.09 1.09 97 1016.2
20260503020443 55 10 1.7 2.6 0.00 1.09 1.09 97 1016.2
20260503015939 55 331 2.6 2.6 0.00 1.09 1.09 97 1015.9
20260503015436 55 359 2.6 3.5 0.00 1.09 1.09 97 1015.8
20260503014932 55 357 1.7 3.5 0.00 1.09 1.09 97 1015.8
20260503014429 55 26 3.5 3.5 0.00 1.09 1.09 97 1015.7
20260503013927 55 358 1.7 3.5 0.00 1.09 1.09 97 1015.4
20260503013424 55 7 2.6 5.2 0.00 1.09 1.09 97 1015.7
20260503012921 55 45 2.6 4.3 0.00 1.09 1.09 97 1015.6
20260503012419 55 2 1.7 2.6 0.00 1.09 1.09 97 1015.6
20260503011915 55 350 1.7 2.6 0.00 1.09 1.09 97 1015.8
20260503011412 55 336 2.6 3.5 0.00 1.09 1.09 97 1015.8
20260503010909 55 348 1.7 2.6 0.00 1.09 1.09 97 1015.8
20260503010406 56 357 3.5 3.5 0.00 1.09 1.09 97 1015.6
20260503005902 56 12 3.5 4.3 0.00 1.09 1.09 97 1015.7
20260503005400 56 0 1.7 2.6 0.00 1.09 1.09 97 1015.6
20260503004856 56 348 1.7 2.6 0.00 1.09 1.09 97 1015.3
20260503004354 56 17 2.6 5.2 0.00 1.09 1.09 97 1015.6
20260503003851 56 33 2.6 2.6 0.00 1.09 1.09 97 1015.2
20260503003348 56 57 0.9 1.7 0.00 1.09 1.09 97 1015.1
20260503002844 56 350 2.6 3.5 0.00 1.09 1.09 97 1015.0
20260503002342 56 50 0.0 3.5 0.00 1.09 1.09 97 1014.8
20260503001838 56 19 3.5 4.3 0.00 1.09 1.09 97 1014.8
20260503001335 56 21 3.5 4.3 0.00 1.09 1.09 97 1014.8
20260503000832 56 10 1.7 3.5 0.00 1.09 1.09 97 1014.9
20260503000330 56 0 2.6 3.5 0.00 1.09 1.09 97 1014.9
20260502235827 56 2 0.9 2.6 0.02 1.09 1.09 97 1014.6
20260502235324 56 3 1.7 3.5 0.02 1.09 1.09 97 1014.6
20260502234820 56 0 1.7 3.5 0.02 1.08 1.08 97 1014.6
20260502234317 57 10 1.7 3.5 0.05 1.08 1.08 97 1014.5
20260502233814 57 26 3.5 3.5 0.02 1.08 1.08 97 1014.5
20260502233310 57 0 1.7 5.2 0.02 1.07 1.07 97 1014.4
20260502232807 57 336 1.7 2.6 0.02 1.07 1.07 97 1014.1
20260502232305 57 25 1.7 3.5 0.00 1.07 1.07 97 1014.2
20260502231800 57 28 1.7 2.6 0.00 1.07 1.07 97 1013.9
20260502231258 57 354 2.6 7.0 0.00 1.07 1.07 97 1013.7
20260502230756 57 12 2.6 4.3 0.00 1.07 1.07 97 1014.0
20260502230254 57 22 2.6 3.5 0.00 1.07 1.07 97 1013.8
20260502225750 57 23 1.7 2.6 0.00 1.07 1.07 97 1013.9